Snowfall_Accumulation
nan nan nan nan nan nan nan nan nan nan nan nan nan nan nan nan nan 0.0 0.0 0.0 0.0 nan nan 0.0 0.0 0.0 0.0 0.0 0.0 0.0 0.0 0.0 0.0 0.0 0.0 0.0 0.0 0.0 0.0 0.0 0.0 0.0 0.0 0.0 0.0
nan nan nan nan nan nan nan nan nan nan nan nan nan nan nan nan 0.0 0.0 nan nan nan nan 0.0 0.0 0.0 0.0 0.0 0.0 0.0 0.0 0.0 0.0 0.0 0.0 0.0 0.0 0.0 0.0 0.0 0.0 0.0 0.0 0.0 0.0 0.0
nan nan nan nan nan nan nan nan nan nan nan nan nan nan nan 0.0 0.0 0.0 nan nan nan 0.0 0.0 0.0 0.0 0.0 0.0 0.0 0.0 0.0 0.0 0.0 0.0 0.0 0.0 0.0 0.0 0.0 0.0 0.0 0.0 0.0 0.0 0.0 0.0
nan nan nan nan nan nan nan nan nan nan nan nan nan nan nan 0.0 0.0 0.0 nan nan nan 0.0 0.0 0.0 0.0 0.0 0.0 0.0 0.0 0.0 0.0 0.0 0.0 0.0 0.0 0.0 0.0 0.0 0.0 0.0 0.0 0.0 0.0 0.0 0.0
nan nan nan nan nan nan nan nan nan nan nan nan nan nan 0.0 0.0 0.0 0.0 nan nan 0.0 0.0 0.0 0.0 0.0 0.0 0.0 0.0 0.0 0.0 0.0 0.0 0.0 0.0 0.0 0.0 0.0 0.0 0.0 0.0 0.0 0.0 0.0 0.0 0.0
nan nan nan nan nan nan nan nan nan nan nan nan nan nan 0.0 0.0 0.0 0.0 0.0 0.0 0.0 0.0 0.0 0.0 0.0 0.0 0.0 0.0 0.0 0.0 0.0 0.0 0.0 0.0 0.0 0.0 0.0 0.0 0.0 0.0 0.0 0.0 0.0 0.0 0.0
nan nan nan nan nan nan nan nan nan nan nan nan nan 0.0 0.0 0.0 0.0 0.0 0.0 0.0 0.0 0.0 0.0 0.0 0.0 0.0 0.0 0.0 0.0 0.0 0.0 0.0 0.0 0.0 0.0 0.0 0.0 0.0 0.0 0.0 0.0 0.0 0.0 0.0 0.0
nan nan nan nan nan nan nan nan nan nan nan nan nan 0.0 0.0 0.0 0.0 0.0 0.0 0.0 0.0 0.0 0.0 0.0 0.0 0.0 0.0 0.0 0.0 0.0 0.0 0.0 0.0 0.0 0.0 0.0 0.0 0.0 0.0 0.0 0.0 0.0 0.0 0.0 0.0
nan nan nan nan nan nan nan nan nan nan nan nan 0.0 0.0 0.0 nan 0.0 0.0 0.0 0.0 0.0 0.0 0.0 0.0 0.0 0.0 0.0 0.0 0.0 0.0 0.0 0.0 0.0 0.0 0.0 0.0 0.0 0.0 0.0 0.0 0.0 0.0 0.0 0.0 0.0
nan nan nan nan nan nan nan nan nan nan 0.0 0.0 0.0 0.0 0.0 0.0 0.0 0.0 0.0 0.0 0.0 0.0 0.0 0.0 0.0 0.0 0.0 0.0 0.1 0.1 0.0 0.0 0.0 0.0 0.0 0.0 0.0 0.0 0.0 0.0 0.0 0.0 0.0 0.0 0.0
nan nan nan nan nan nan 0.0 0.0 0.0 0.0 0.0 0.0 0.0 0.0 0.0 0.0 0.0 0.0 0.0 0.0 0.0 0.0 0.0 0.0 0.0 0.0 0.0 0.0 0.0 0.0 0.0 0.0 0.0 0.0 0.0 0.0 0.0 0.0 0.0 0.0 0.0 0.0 0.0 0.0 0.0
nan nan nan nan nan nan 0.0 0.0 0.0 0.0 0.0 0.0 0.0 0.0 0.0 0.0 0.0 0.0 0.0 0.0 0.0 0.0 0.0 0.1 0.4 0.0 0.0 0.0 0.0 0.0 0.0 0.0 0.0 0.0 0.0 0.0 0.0 0.0 0.0 0.0 0.0 0.0 0.0 0.0 0.0
nan nan nan nan nan 0.0 0.0 0.0 0.0 0.0 0.0 0.0 0.0 0.0 0.0 0.0 0.0 0.0 0.0 0.0 0.0 0.0 0.0 0.0 0.0 0.0 0.0 0.0 0.4 0.4 0.2 0.1 0.0 0.0 0.0 0.0 0.0 0.0 0.0 0.0 0.0 0.0 0.0 0.0 0.0
nan nan nan nan nan 0.0 0.0 0.0 0.0 0.0 0.0 0.1 0.0 0.0 0.0 0.0 0.0 0.0 0.0 0.0 0.0 0.0 0.0 0.0 0.0 0.0 0.0 0.0 0.0 0.1 0.0 0.1 0.4 0.4 0.4 0.0 0.4 0.0 0.0 0.0 0.0 0.0 0.0 0.0 0.0
nan nan nan nan 0.0 0.0 0.0 0.0 0.0 0.0 1.9 0.0 0.0 0.0 0.0 0.3 0.1 0.0 0.0 0.0 0.5 0.2 0.1 0.0 0.0 0.1 0.1 0.0 0.0 0.1 0.0 0.0 0.1 0.3 0.2 0.0 0.2 0.1 0.0 0.0 1.2 1.7 0.2 0.1 0.1
nan nan nan 0.0 0.0 0.0 0.0 0.0 0.0 0.4 6.9 0.1 0.0 0.0 0.0 0.0 0.0 0.0 0.0 0.0 0.0 0.4 0.2 0.1 0.0 0.0 0.0 0.0 0.0 0.0 0.0 0.0 0.3 0.6 6.0 0.0 0.0 1.9 1.0 1.9 1.8 0.5 0.1 0.2 0.2
nan nan nan 0.0 0.0 0.0 0.0 0.0 0.1 1.1 0.0 0.0 0.0 0.0 0.0 0.1 0.1 0.4 1.0 1.0 1.6 0.5 0.5 0.2 0.5 0.3 0.0 0.1 0.0 0.1 0.3 4.3 4.5 7.9 1.1 0.0 0.2 2.8 0.8 1.7 1.3 1.6 0.5 0.8 0.4
nan nan nan 0.0 0.0 0.0 0.0 0.0 0.1 0.1 0.0 0.0 0.0 0.0 0.0 0.0 0.1 0.1 0.5 1.7 1.0 1.2 1.2 1.4 1.9 0.6 0.3 0.7 0.2 0.2 0.2 1.5 9.4 3.6 2.0 0.4 8.3 7.5 3.6 3.4 2.2 1.1 0.7 0.1 0.3
nan 0.0 0.0 0.0 0.0 0.0 0.0 0.2 1.8 0.6 0.2 0.2 0.0 0.1 0.0 0.0 0.0 0.0 0.3 1.0 1.8 2.2 4.3 3.4 2.8 0.7 0.3 0.2 0.2 0.9 2.0 0.5 4.1 0.6 2.7 0.4 0.2 1.4 0.5 1.0 0.7 0.7 0.1 0.3 0.1
0.0 0.0 0.0 0.0 0.0 0.0 0.1 nan 1.3 0.1 0.0 0.0 0.6 0.5 0.0 0.0 0.0 0.0 0.0 0.1 0.1 0.2 0.1 1.5 1.7 0.4 0.7 0.1 0.4 0.4 0.1 5.9 5.8 11.3 5.1 1.7 0.6 6.3 6.4 4.2 2.4 3.2 2.2 1.2 0.3
0.0 0.0 0.0 0.0 0.0 0.0 0.8 1.2 0.2 0.0 0.0 0.2 0.3 0.5 0.1 0.3 0.1 0.2 0.4 0.8 0.3 0.2 0.4 2.4 4.8 1.2 0.2 0.4 0.5 1.0 2.7 1.8 3.0 9.4 10.3 4.9 12.1 7.5 5.4 4.1 3.3 2.9 1.6 1.6 1.0
0.0 0.1 0.0 0.0 0.0 0.0 0.3 0.1 nan 0.0 0.0 0.0 0.1 0.3 0.7 0.6 0.5 0.1 0.5 0.9 0.1 0.1 1.4 1.0 3.4 3.0 3.6 3.2 1.8 1.8 2.2 2.3 10.1 5.1 3.0 5.5 10.8 3.8 3.7 3.4 2.1 2.0 0.7 0.4 0.2
0.0 0.0 0.0 0.0 0.1 0.2 0.0 0.0 0.0 0.0 0.0 0.0 0.2 0.3 0.2 0.9 3.0 1.5 0.9 0.8 0.2 0.2 2.1 2.1 3.3 2.1 0.4 1.5 0.8 2.9 2.8 2.2 2.7 5.0 5.8 8.3 12.2 1.9 1.1 1.0 1.4 2.1 1.3 1.0 0.5
0.0 0.3 0.0 0.0 0.0 0.3 0.3 0.0 0.1 0.0 0.2 0.2 0.5 0.2 0.4 0.4 0.4 2.8 0.6 0.6 0.0 0.1 nan nan 2.5 1.9 4.1 2.7 0.6 3.5 1.1 1.6 2.8 9.0 2.0 3.2 1.6 1.8 1.7 1.1 2.0 3.3 1.6 0.9 0.5
0.1 0.7 0.3 0.2 0.1 0.1 0.4 0.3 0.3 1.1 0.2 0.0 0.2 0.2 3.0 6.2 1.2 0.8 0.5 0.4 0.2 nan 0.2 1.0 2.8 0.1 0.0 0.5 0.3 0.6 0.8 1.0 2.3 0.8 4.3 0.8 0.8 0.3 0.5 1.0 1.3 1.5 0.9 0.4 0.3
0.6 2.0 1.4 0.9 0.2 0.2 0.2 1.4 0.2 0.7 1.0 1.2 1.7 0.2 2.2 6.4 2.9 7.7 5.1 2.1 2.0 1.4 0.5 0.6 2.5 0.4 0.5 0.1 0.0 1.0 0.1 0.4 0.7 0.2 0.6 0.3 0.9 0.1 0.9 1.3 1.4 1.1 0.5 0.3 0.2
0.0 0.0 1.6 nan 0.4 1.4 1.6 2.4 1.8 0.5 0.2 1.4 1.0 2.5 3.2 1.9 1.3 0.4 0.3 0.2 0.5 2.4 2.4 4.1 2.5 3.6 2.7 0.2 0.2 2.4 1.0 0.2 0.4 0.0 0.1 1.2 0.8 0.5 0.8 0.9 0.8 1.2 0.3 0.2 0.0
Water_Equivalent
nan nan nan nan nan nan nan nan nan nan nan nan nan nan nan nan nan 0.00 0.00 0.00 0.00 nan nan 0.00 0.00 0.00 0.00 0.00 0.00 0.00 0.00 0.00 0.00 0.00 0.00 0.00 0.00 0.00 0.00 0.00 0.00 0.00 0.00 0.00 0.00
nan nan nan nan nan nan nan nan nan nan nan nan nan nan nan nan 0.00 0.00 nan nan nan nan 0.00 0.00 0.00 0.00 0.00 0.00 0.00 0.00 0.00 0.00 0.00 0.00 0.00 0.00 0.00 0.00 0.00 0.00 0.00 0.00 0.00 0.00 0.00
nan nan nan nan nan nan nan nan nan nan nan nan nan nan nan 0.00 0.00 0.00 nan nan nan 0.00 0.00 0.00 0.00 0.00 0.00 0.00 0.00 0.00 0.00 0.00 0.00 0.00 0.00 0.00 0.00 0.00 0.00 0.00 0.00 0.00 0.00 0.00 0.00
nan nan nan nan nan nan nan nan nan nan nan nan nan nan nan 0.00 0.00 0.00 nan nan nan 0.00 0.00 0.00 0.00 0.00 0.00 0.00 0.00 0.00 0.00 0.00 0.00 0.00 0.00 0.00 0.00 0.00 0.00 0.00 0.00 0.00 0.00 0.00 0.00
nan nan nan nan nan nan nan nan nan nan nan nan nan nan 0.00 0.00 0.00 0.00 nan nan 0.00 0.00 0.00 0.00 0.00 0.00 0.00 0.00 0.00 0.00 0.00 0.00 0.00 0.00 0.00 0.00 0.00 0.00 0.00 0.00 0.00 0.00 0.00 0.00 0.00
nan nan nan nan nan nan nan nan nan nan nan nan nan nan 0.00 0.00 0.00 0.00 0.00 0.00 0.00 0.00 0.00 0.00 0.00 0.00 0.00 0.00 0.00 0.00 0.00 0.00 0.00 0.00 0.00 0.00 0.00 0.00 0.00 0.00 0.00 0.00 0.00 0.00 0.00
nan nan nan nan nan nan nan nan nan nan nan nan nan 0.00 0.00 0.00 0.00 0.00 0.00 0.00 0.00 0.00 0.00 0.00 0.00 0.00 0.00 0.00 0.00 0.00 0.00 0.00 0.00 0.00 0.00 0.00 0.00 0.00 0.00 0.00 0.00 0.00 0.00 0.00 0.00
nan nan nan nan nan nan nan nan nan nan nan nan nan 0.00 0.00 0.00 0.00 0.00 0.00 0.00 0.00 0.00 0.00 0.00 0.00 0.00 0.00 0.00 0.00 0.00 0.00 0.00 0.00 0.00 0.00 0.00 0.00 0.00 0.00 0.00 0.00 0.00 0.00 0.00 0.00
nan nan nan nan nan nan nan nan nan nan nan nan 0.00 0.00 0.00 nan 0.00 0.00 0.00 0.00 0.00 0.00 0.00 0.00 0.00 0.00 0.00 0.00 0.00 0.00 0.00 0.00 0.00 0.00 0.00 0.00 0.00 0.00 0.00 0.00 0.00 0.00 0.00 0.00 0.00
nan nan nan nan nan nan nan nan nan nan 0.00 0.00 0.00 0.00 0.00 0.00 0.00 0.00 0.00 0.00 0.00 0.00 0.00 0.00 0.00 0.00 0.00 0.00 0.02 0.03 0.00 0.00 0.00 0.00 0.00 0.00 0.00 0.00 0.00 0.00 0.00 0.00 0.00 0.00 0.00
nan nan nan nan nan nan 0.00 0.00 0.00 0.00 0.00 0.00 0.00 0.00 0.00 0.00 0.00 0.00 0.00 0.00 0.00 0.00 0.00 0.00 0.01 0.01 0.00 0.00 0.00 0.00 0.00 0.00 0.00 0.00 0.00 0.00 0.00 0.00 0.00 0.00 0.00 0.00 0.00 0.00 0.00
nan nan nan nan nan nan 0.00 0.00 0.00 0.00 0.00 0.00 0.00 0.00 0.00 0.00 0.00 0.00 0.00 0.00 0.00 0.00 0.00 0.01 0.09 0.00 0.00 0.00 0.00 0.00 0.00 0.00 0.00 0.00 0.00 0.00 0.00 0.00 0.00 0.00 0.00 0.00 0.00 0.00 0.00
nan nan nan nan nan 0.00 0.00 0.00 0.00 0.00 0.00 0.00 0.00 0.00 0.00 0.00 0.00 0.00 0.00 0.00 0.00 0.00 0.00 0.00 0.00 0.00 0.00 0.01 0.08 0.07 0.03 0.02 0.00 0.00 0.00 0.00 0.00 0.00 0.00 0.00 0.00 0.00 0.00 0.00 0.00
nan nan nan nan nan 0.00 0.00 0.00 0.00 0.00 0.01 0.01 0.00 0.00 0.00 0.00 0.00 0.00 0.00 0.00 0.00 0.00 0.00 0.01 0.00 0.00 0.00 0.01 0.00 0.02 0.00 0.02 0.06 0.06 0.06 0.00 0.07 0.00 0.00 0.00 0.00 0.00 0.00 0.00 0.00
nan nan nan nan 0.00 0.00 0.00 0.00 0.00 0.00 0.67 0.00 0.00 0.00 0.00 0.05 0.02 0.00 0.00 0.01 0.07 0.04 0.01 0.00 0.00 0.01 0.02 0.00 0.00 0.01 0.00 0.00 0.01 0.04 0.03 0.00 0.05 0.02 0.00 0.00 0.19 0.27 0.04 0.03 0.02
nan nan nan 0.00 0.00 0.00 0.00 0.00 0.00 0.09 2.44 0.02 0.00 0.00 0.00 0.00 0.01 0.00 0.00 0.00 0.01 0.06 0.04 0.01 0.00 0.00 0.00 0.00 0.00 0.00 0.00 0.01 0.04 0.09 0.81 0.00 0.01 0.32 0.17 0.29 0.33 0.10 0.03 0.04 0.05
nan nan nan 0.00 0.00 0.00 0.00 0.00 0.05 0.25 0.00 0.00 0.01 0.00 0.00 0.01 0.02 0.06 0.15 0.13 0.18 0.07 0.06 0.03 0.07 0.05 0.00 0.01 0.01 0.01 0.05 0.61 0.61 1.26 0.18 0.00 0.05 0.40 0.14 0.29 0.22 0.25 0.10 0.15 0.09
nan nan nan 0.00 0.00 0.00 0.00 0.00 0.01 0.01 0.00 0.00 0.00 0.00 0.00 0.00 0.01 0.01 0.08 0.20 0.15 0.15 0.14 0.21 0.39 0.07 0.05 0.10 0.02 0.03 0.03 0.27 0.85 0.49 0.37 0.09 0.89 1.37 0.55 0.51 0.35 0.19 0.12 0.02 0.06
nan 0.00 0.00 0.00 0.00 0.00 0.00 0.06 0.20 0.07 0.03 0.03 0.00 0.01 0.00 0.00 0.00 0.00 0.04 0.12 0.24 0.29 0.48 0.36 0.32 0.10 0.04 0.03 0.03 0.11 0.26 0.07 0.47 0.07 0.34 0.06 0.04 0.25 0.10 0.18 0.14 0.13 0.02 0.05 0.03
0.00 0.00 0.00 0.00 0.00 0.00 0.01 nan 0.17 0.02 0.00 0.01 0.06 0.06 0.00 0.00 0.00 0.00 0.00 0.02 0.01 0.04 0.02 0.19 0.20 0.05 0.09 0.01 0.07 0.06 0.01 0.64 0.75 0.96 0.39 0.20 0.08 1.02 0.83 0.61 0.41 0.53 0.36 0.20 0.05
0.00 0.00 0.00 0.00 0.00 0.00 0.11 0.16 0.04 0.00 0.00 0.02 0.03 0.06 0.01 0.03 0.01 0.04 0.06 0.11 0.05 0.04 0.06 0.32 0.60 0.13 0.03 0.05 0.07 0.14 0.35 0.22 0.38 0.98 0.86 0.39 1.30 1.21 0.75 0.61 0.49 0.44 0.29 0.29 0.18
0.00 0.01 0.00 0.00 0.00 0.00 0.04 0.02 nan 0.00 0.00 0.00 0.01 0.04 0.09 0.10 0.09 0.02 0.06 0.14 0.01 0.01 0.19 0.15 0.42 0.38 0.36 0.42 0.28 0.24 0.27 0.27 0.95 0.41 0.34 0.52 0.95 0.58 0.58 0.53 0.33 0.31 0.12 0.06 0.03
0.00 0.00 0.00 0.00 0.01 0.02 0.00 0.00 0.00 0.00 0.00 0.00 0.04 0.05 0.04 0.14 0.38 0.17 0.12 0.13 0.03 0.04 0.31 0.29 0.41 0.21 0.06 0.18 0.12 0.35 0.34 0.25 0.33 0.57 0.49 0.65 1.00 0.27 0.17 0.15 0.21 0.30 0.19 0.15 0.07
0.00 0.04 0.00 0.00 0.00 0.04 0.04 0.01 0.02 0.00 0.05 0.05 0.11 0.04 0.07 0.05 0.05 0.34 0.07 0.08 0.00 0.01 nan nan 0.33 0.20 0.38 0.24 0.07 0.33 0.12 0.18 0.29 0.81 0.16 0.25 0.14 0.19 0.21 0.14 0.27 0.45 0.23 0.12 0.08
0.03 0.10 0.05 0.02 0.01 0.01 0.06 0.05 0.04 0.12 0.03 0.00 0.05 0.03 0.37 0.66 0.15 0.09 0.05 0.06 0.03 nan 0.04 0.17 0.27 0.01 0.00 0.07 0.03 0.08 0.09 0.11 0.23 0.07 0.34 0.08 0.08 0.04 0.07 0.13 0.18 0.22 0.12 0.06 0.04
0.12 0.30 0.24 0.12 0.03 0.03 0.03 0.18 0.04 0.09 0.16 0.17 0.23 0.04 0.32 0.71 0.33 0.87 0.62 0.28 0.28 0.20 0.08 0.10 0.24 0.04 0.05 0.01 0.01 0.08 0.01 0.04 0.07 0.03 0.07 0.03 0.09 0.02 0.13 0.19 0.19 0.14 0.07 0.04 0.03
0.00 0.01 0.34 nan 0.06 0.19 0.18 0.28 0.24 0.06 0.03 0.21 0.14 0.37 0.39 0.23 0.20 0.06 0.05 0.04 0.08 0.28 0.27 0.45 0.26 0.32 0.20 0.02 0.02 0.19 0.08 0.02 0.05 0.01 0.02 0.11 0.09 0.07 0.10 0.12 0.10 0.15 0.05 0.03 0.01
SL_Ratio
nan nan nan nan nan nan nan nan nan nan nan nan nan nan nan nan nan nan nan nan nan nan nan nan nan nan nan nan nan nan nan nan nan nan nan nan nan nan nan nan nan nan nan nan nan
nan nan nan nan nan nan nan nan nan nan nan nan nan nan nan nan nan nan nan nan nan nan nan nan nan nan nan nan nan nan nan nan nan nan nan nan nan nan nan nan nan nan nan nan nan
nan nan nan nan nan nan nan nan nan nan nan nan nan nan nan nan nan nan nan nan nan nan nan nan nan nan nan nan nan nan nan nan nan nan nan nan nan nan nan nan nan nan nan nan nan
nan nan nan nan nan nan nan nan nan nan nan nan nan nan nan nan nan nan nan nan nan nan nan nan nan nan nan nan nan nan nan nan nan nan nan nan nan nan nan nan nan nan nan nan nan
nan nan nan nan nan nan nan nan nan nan nan nan nan nan nan nan nan nan nan nan nan nan nan nan nan nan nan nan nan nan nan nan nan nan nan nan nan nan nan nan nan nan nan nan nan
nan nan nan nan nan nan nan nan nan nan nan nan nan nan nan nan nan nan nan nan nan nan nan nan nan nan nan nan nan nan nan nan nan nan nan nan nan nan nan nan nan nan nan nan nan
nan nan nan nan nan nan nan nan nan nan nan nan nan nan nan nan nan nan nan nan nan nan nan nan nan nan nan nan nan nan nan nan nan nan nan nan nan nan nan nan nan nan nan nan nan
nan nan nan nan nan nan nan nan nan nan nan nan nan nan nan nan nan nan nan nan nan nan nan nan nan nan nan nan nan nan nan nan nan nan nan nan nan nan nan nan nan nan nan nan nan
nan nan nan nan nan nan nan nan nan nan nan nan nan nan nan nan nan nan nan nan nan nan nan nan nan nan nan nan nan nan nan nan nan nan nan nan nan nan nan nan nan nan nan nan nan
nan nan nan nan nan nan nan nan nan nan nan nan nan nan nan nan nan nan nan nan nan nan nan nan nan nan nan nan 3.8 2.6 nan nan nan nan nan nan nan nan nan nan nan nan nan nan nan
nan nan nan nan nan nan nan nan nan nan nan nan nan nan nan nan nan nan nan nan nan nan nan nan 2.5 2.6 nan nan nan nan nan nan nan nan nan nan nan nan nan nan nan nan nan nan nan
nan nan nan nan nan nan nan nan nan nan 5.0 nan nan nan nan nan nan nan nan nan nan nan nan 5.7 3.9 nan nan nan nan nan 10.0 7.5 nan nan nan nan nan nan nan nan nan nan nan nan nan
nan nan nan nan nan nan nan nan nan nan nan nan nan nan nan nan nan nan nan nan nan nan nan nan nan nan 6.0 5.0 5.0 5.4 5.8 6.5 5.0 nan nan nan nan nan nan nan nan nan nan nan nan
nan nan nan nan nan nan nan nan nan nan 5.6 7.5 5.0 nan nan nan 10.0 nan nan nan nan nan nan 6.3 nan nan nan 6.3 5.0 6.7 nan 6.0 6.3 6.5 5.5 nan 5.4 nan nan nan nan nan nan 5.0 nan
nan nan nan nan nan nan nan nan nan nan 2.8 nan nan nan nan 6.3 5.5 5.0 nan 5.8 6.5 6.4 6.4 nan nan 6.5 6.9 nan nan 6.3 nan nan 6.0 6.8 4.5 5.0 3.1 5.2 nan 4.3 6.4 6.2 4.6 4.4 3.5
nan nan nan nan nan nan nan nan nan 4.4 2.8 2.8 nan nan nan nan 5.8 5.8 5.7 nan 5.9 6.3 6.5 5.9 nan nan nan nan nan nan 6.7 5.4 6.7 7.0 7.5 nan 3.5 6.1 5.9 6.6 5.5 5.4 4.8 4.8 4.4
nan nan nan nan nan nan nan nan 2.7 4.3 5.0 nan 2.4 nan nan 7.5 5.6 5.7 6.5 7.7 8.5 7.7 8.6 7.1 7.1 6.3 nan 7.2 6.1 5.9 6.7 7.0 7.4 6.3 5.9 nan 4.3 7.0 5.8 5.8 5.7 6.6 5.5 5.3 4.6
nan nan nan nan nan nan nan nan 4.6 9.0 10.0 nan nan nan 7.9 nan 6.3 5.9 6.7 8.5 7.0 7.6 8.5 6.8 4.9 7.9 6.4 6.7 6.6 6.6 6.8 5.7 11.1 7.3 5.4 4.5 9.3 5.5 6.5 6.7 6.3 6.0 5.4 4.0 4.6
nan nan nan nan nan nan nan 2.6 9.0 8.8 7.6 7.6 nan 9.4 5.0 5.0 5.0 nan 7.2 8.5 7.4 7.5 8.9 9.5 8.6 7.0 6.8 6.4 6.2 7.9 7.7 6.5 8.6 8.2 8.1 5.7 5.7 5.5 5.2 5.8 5.4 5.6 4.7 5.5 4.9
nan nan nan nan nan nan 7.7 nan 7.9 5.8 10.0 6.1 9.5 8.6 10.7 nan nan nan nan 7.3 6.6 5.6 5.5 7.5 8.9 7.6 7.3 6.7 6.3 6.8 4.8 9.3 7.8 11.9 13.0 8.7 8.3 6.1 7.7 6.8 5.9 6.0 6.0 5.8 5.0
nan nan nan nan nan 5.0 7.0 7.5 6.8 nan 5.0 7.7 8.6 9.2 10.0 9.8 5.3 5.6 6.2 7.0 5.4 4.8 5.8 7.3 7.9 9.4 7.1 7.7 7.5 7.0 7.9 8.0 7.8 9.6 12.0 12.3 9.3 6.2 7.2 6.7 6.7 6.5 5.6 5.5 5.4
nan 6.8 nan nan nan 7.5 8.4 6.9 nan nan nan 6.3 6.5 7.7 7.4 5.9 6.0 7.7 8.3 6.7 4.3 4.8 7.4 6.5 8.1 7.9 10.1 7.6 6.4 7.5 8.4 8.3 10.6 12.2 8.9 10.4 11.5 6.5 6.3 6.3 6.2 6.4 5.9 6.1 5.8
nan nan nan nan 9.7 9.0 6.7 nan 6.0 nan nan 3.3 6.2 5.8 5.0 6.2 7.9 8.6 7.5 6.2 5.3 5.4 6.9 7.0 8.1 9.6 7.2 8.4 6.7 8.3 8.3 8.5 8.3 8.7 12.0 12.8 12.1 6.9 6.2 6.9 6.5 6.9 6.7 6.6 6.8
7.5 6.8 nan nan 5.0 7.0 7.1 8.1 6.9 nan 4.6 4.3 4.9 4.8 5.5 7.4 7.4 8.1 8.4 7.5 nan 4.4 nan nan 7.6 9.4 10.7 11.3 7.9 10.5 9.3 8.9 9.6 11.0 13.0 12.6 11.2 9.3 8.1 7.9 7.4 7.4 7.0 7.1 7.1
4.2 7.2 6.8 7.5 8.2 7.7 7.9 7.2 6.1 8.7 6.4 4.2 4.8 6.8 8.2 9.4 8.0 8.4 8.5 6.6 5.4 nan 4.8 6.1 10.6 5.8 7.5 7.7 7.3 7.8 9.2 9.2 10.0 10.3 12.6 9.5 9.4 7.7 6.7 7.2 7.2 7.0 7.5 7.4 7.4
5.0 6.5 5.9 7.1 6.2 6.5 7.6 7.9 6.6 7.8 6.6 7.3 7.2 5.7 6.7 9.0 9.0 8.9 8.2 7.7 7.3 7.2 6.7 6.8 10.3 8.8 10.1 6.4 7.0 12.2 8.1 9.6 9.7 7.9 8.6 7.8 9.8 7.4 7.0 7.0 7.5 7.8 7.6 7.7 7.6
nan 2.7 4.8 nan 6.2 7.6 8.7 8.4 7.6 7.3 5.9 6.9 6.9 6.8 8.2 8.2 6.8 6.0 6.1 6.1 5.8 8.4 9.1 9.1 9.6 11.1 13.3 10.8 11.0 12.4 12.3 9.4 8.8 6.9 7.3 11.0 8.6 7.5 7.8 7.6 7.6 7.8 7.2 7.6 7.5